Location: Napier
(39.4830°S, 176.9170°E)
Time: 22:21:33
(UTC+13:00)

Cosmos 1939 Rocket - Pass Details

Date: 24 January 2019
Orbit: 532 x 586 km, 97.4° (Epoch: 20 February)

Event Time Altitude Azimuth Distance (km) Brightness Sun altitude
Rises 21:27:45 0° 170° (S) 2,848 6.8 -9.4°
Reaches altitude 10° 21:29:56 10° 170° (S) 1,942 6.0 -9.8°
Maximum altitude 21:34:09 81° 256° (WSW) 609 3.1 -10.5°
Drops below altitude 10° 21:38:19 10° 343° (NNW) 1,915 5.4 -11.1°
Sets 21:40:28 0° 344° (NNW) 2,803 6.2 -11.4°
